foto1
foto1
foto1
foto1
foto1

TAF LFBZ

TAF AMD LFBZ 110121Z 1101/1124 26020G40KT 4000 RA OVC008 BECMG 1102/1104 29015G30KT OVC035 BECMG 1104/1106 24020G30KT 9999 NSW BKN060 TEMPO 1112/1118 SHRA BKN025TCU BECMG 1114/1116 30020G30KT BECMG 1121/1124 30010G20KT

Accès Membres

Bienvenue sur le site de l'aéroclub Dassault Bréguet Biarritz.

L'aéroclub Dassault Breguet Biarritz est installé sur l'aéroport de Biarritz-Parme (LFBZ). Il a pour objectif de permettre à ses membres de découvrir le vol à moteur.

Vous trouverez sur ce site toutes les informations afin de découvrir notre activité. 

Les membres pourront se connecter pour accéder à certains éléments permettant de préparer un vol.

Bonne visite.

Plan d'accès:

 Logo Aéroclub

Réserver un avion

Pour réserver un avion cliquer sur le logo Openflyers

logo openflyers